Regional Weather Roundup
Issued by NWS

Home | Current Version | Previous Version | Graphics & Text | Print | Product List | Glossary On
Versions: 1 2 3 4 5 6 7 8 9 10 11 12 13 14 15 16 17 18 19 20 21 22 23 24 25 26 27 28 29 30 31 32 33 34 35 36 37 38 39 40 41 42 43 44 45 46 47 48 49 50
000
ASUS43 KIND 201159
RWRIN

WEATHER ROUNDUP FOR INDIANA
NATIONAL WEATHER SERVICE INDIANAPOLIS IN
700 AM EST FRI JAN 20 2017

NOTE: "FAIR" INDICATES FEW OR NO CLOUDS BELOW 12,000 FEET WITH NO
SIGNIFICANT WEATHER AND/OR OBSTRUCTIONS TO VISIBILITY.

* - STATION DOES NOT REPORT WEATHER SUCH AS PRECIPITATION OR FOG.

+ - STATION NOT QUALITY CONTROLLED BY THE NATIONAL WEATHER SERVICE.
    USE DATA WITH CAUTION...ESPECIALLY DEWPOINT AND RELATIVE
    HUMIDITY OBSERVATIONS.

INZ001>003-010>013-019-020-201300-
NORTHWEST INDIANA

CITY           SKY/WX    TMP DP  RH WIND       PRES   REMARKS
GARY /AIRPORT/ LGT RAIN  39  39 100 NE6       29.62F
MONTICELLO +   DRIZZLE   40  39  96 CALM      29.58R
6HR MIN TEMP:  40; 6HR MAX TEMP:  42; 6HR PCP:  0.36;

VALPARAISO     LGT RAIN  39  37  93 NE6       29.61S FOG

$$

LMZ046-743>745-201300-
SOUTHERN LAKE MICHIGAN

STATION/POSITION TIME  TEMP    WIND        PRES    WAVE
                       AIR SEA DIR/SP/G            HT
                 (UTC) (F)     (DEG/KT/KT) (MB)    (FT)
BURNS HARBOR     1140   34      80/  6/  8 1003.7S
MICHIGAN CITY    1130   34      30/  9/  9   N/A

$$

INZ004-005-014>016-021>024-201300-
NORTH CENTRAL INDIANA

CITY           SKY/WX    TMP DP  RH WIND       PRES   REMARKS
ELKHART        LGT RAIN  37  36  93 E8        29.61  FOG
GOSHEN         LGT RAIN  37  34  89 E7        29.60F
6HR MIN TEMP:  37; 6HR MAX TEMP:  39; 6HR PCP:  0.40;

SOUTH BEND     LGT RAIN  37  37 100 NE5       29.62S FOG
6HR MIN TEMP:  37; 6HR MAX TEMP:  38; 6HR PCP:  0.32;


$$

INZ006>009-017-018-025>027-201300-
NORTHEAST INDIANA

CITY           SKY/WX    TMP DP  RH WIND       PRES   REMARKS
ANGOLA *+      CLOUDY    34  34 100 E7        29.60F WCI  28
FORT WAYNE     LGT RAIN  39  36  89 E9        29.60S
6HR MIN TEMP:  39; 6HR MAX TEMP:  40; 6HR PCP:  0.72;

KENDALLVILLE + RAIN      35  35 100 E9        29.60F WCI  28

$$

INZ028-029-035-036-043>045-051>053-201300-
WEST CENTRAL INDIANA

CITY           SKY/WX    TMP DP  RH WIND       PRES   REMARKS
CRAWFORDSVL +  FOG       44  44 100 SW8       29.60R VSB 1
6HR MIN TEMP:  42; 6HR MAX TEMP:  44; 6HR PCP:  0.37;

LAFAYETTE      CLOUDY    42  42 100 CALM      29.59R FOG
6HR MIN TEMP:  42; 6HR MAX TEMP:  43; 6HR PCP:  0.43;

TERRE HAUTE    CLOUDY    49  48  97 W9        29.62R FOG
6HR MIN TEMP:  47; 6HR MAX TEMP:  50; 6HR PCP:  0.46;


$$

INZ030>032-037>040-046>048-054>057-064-065-201300-
CENTRAL INDIANA

CITY           SKY/WX    TMP DP  RH WIND       PRES   REMARKS
COLUMBUS       CLOUDY    48  48 100 S9        29.63
INDIANAPOLIS   LGT RAIN  48  47  96 SW7       29.59R FOG
6HR MIN TEMP:  44; 6HR MAX TEMP:  48; 6HR PCP:  0.52;

-EAGLE CREEK   FOG       47  46  97 SW5       29.59R VSB 3/4
6HR MIN TEMP:  45; 6HR MAX TEMP:  47; 6HR PCP:  0.49;

KOKOMO +       LGT RAIN  41  40  96 E6        29.58R
6HR MIN TEMP:  41; 6HR MAX TEMP:  42; 6HR PCP:  0.58;

MT COMFORT *+  CLOUDY    46  45  93 S9        29.60R
SHELBYVILLE    CLOUDY    48  46  93 S9        29.60R FOG
6HR MIN TEMP:  46; 6HR MAX TEMP:  48; 6HR PCP:  0.51;


$$

INZ033-034-041-042-049-050-058-059-201300-
EAST CENTRAL INDIANA

CITY           SKY/WX    TMP DP  RH WIND       PRES   REMARKS
MUNCIE         LGT RAIN  44  42  93 CALM      29.57F FOG
6HR MIN TEMP:  43; 6HR MAX TEMP:  44; 6HR PCP:  0.64;


$$

INZ060-061-067>069-081>083-085>088-201300-
SOUTHWEST INDIANA

CITY           SKY/WX    TMP DP  RH WIND       PRES   REMARKS
EVANSVILLE     CLOUDY    55  52  89 SW13      29.67R
6HR MIN TEMP:  53; 6HR MAX TEMP:  56; 6HR PCP:  0.07;

HUNTINGBURG *+ LGT RAIN  55  53  93 SW10      29.67R FOG
6HR MIN TEMP:  51; 6HR MAX TEMP:  56; 6HR PCP:  0.10;


$$

INZ062-063-066-070>080-084-089>092-201300-
SOUTH CENTRAL AND SOUTHEAST INDIANA

CITY           SKY/WX    TMP DP  RH WIND       PRES   REMARKS
BLOOMINGTON    LGT RAIN  53  51  93 SW7       29.62R FOG
6HR MIN TEMP:  46; 6HR MAX TEMP:  53; 6HR PCP:  0.47;

MADISON *+     CLOUDY    52  52 100 S7        29.67R
SEYMOUR +      CLOUDY    52  52 100 S8        29.63S

$$





USA.gov is the U.S. government's official web portal to all federal, state and local government web resources and services.